Home   Weather   Andorra La Vella   Past weeks

Flag for Andorra Past Weather in Andorra La Vella, Andorra — Yesterday and Last 2 Weeks

Now
64 °F

Mostly cloudy.


Feels Like: 64 °F
Forecast: 41 / 67 °F
Wind: 2 mph from North

Location: Carcassonne Airport

Current Time: Oct 1, 2016 at 7:07:54 AM

Latest Report: Oct 1, 2016 at 6:30 AM


Visibility: N/A

Pressure: 29.89 "Hg (26.48 "Hg at 1031m altitude)

Humidity: 83%

Dew Point: 59 °F

Location of Andorra La VellaLocation

Past Weather in Andorra La Vella — Graph

°F

Andorra La Vella Temperature Yesterday

Maximum temperature yesterday: 79 °F (at 2:30 PM)
Minimum temperature yesterday: 66 °F (at 1:00 AM)
Average temperature yesterday: 70 °F

High & Low Weather Summary for the Past Weeks

 TemperatureHumidityPressure
High82 °F (Sep 22, 4:00 PM)100% (Sep 16, 9:00 AM)30.45 "Hg (Sep 16, 9:00 AM)
Low48 °F (Sep 22, 6:00 AM)26% (Sep 22, 3:30 PM)29.89 "Hg (Oct 1, 3:30 AM)
Average66 °F68%30.15 "Hg
* Reported Sep 16 6:00 AM — Oct 1 6:00 AM, Andorra La Vella, Weather by CustomWeather, © 2016

Note: Actual official high and low records may vary slightly from our data, if they occured in-between our weather recording intervals... More about our weather records

Advertising

Andorra La Vella Weather History for the Previous 24 Hours

Scroll right to see more
 ConditionsComfort  
Time TempWeatherWind HumidityBarometerVisibility
6:00 AM
Sat, Oct 1
66 °FMostly cloudy.1 mph83%29.89 "HgN/A
5:30 AM66 °FMostly cloudy.3 mph83%29.89 "HgN/A
5:00 AM66 °FOvercast.3 mph88%29.89 "HgN/A
4:30 AM66 °FLow clouds.3 mph94%29.92 "Hg6 mi
4:00 AM66 °FPassing clouds.14 mph94%29.89 "Hg6 mi
3:30 AM66 °FPassing clouds.15 mph94%29.89 "Hg6 mi
3:00 AM68 °FLow clouds.13 mph88%29.92 "Hg6 mi
2:30 AM68 °FLow clouds.14 mph88%29.92 "Hg6 mi
2:00 AM68 °FLow clouds.13 mph88%29.92 "HgN/A
1:30 AM68 °FLow clouds.14 mph88%29.92 "HgN/A
1:00 AM68 °FLow clouds.10 mph88%29.95 "HgN/A
12:30 AM68 °FLow clouds.14 mph88%29.95 "HgN/A
12:00 AM68 °FOvercast.13 mph88%29.95 "HgN/A
11:30 PM
Fri, Sep 30
68 °FOvercast.9 mph88%29.98 "HgN/A
11:00 PM68 °FMostly cloudy.13 mph88%29.98 "HgN/A
10:30 PM70 °FOvercast.13 mph78%29.98 "HgN/A
10:00 PM70 °FOvercast.14 mph78%29.98 "HgN/A
9:30 PM70 °FOvercast.15 mph78%29.98 "HgN/A
9:00 PM70 °FOvercast.15 mph78%29.98 "HgN/A
8:30 PM70 °FOvercast.16 mph78%29.98 "HgN/A
8:00 PM70 °FPassing clouds.15 mph78%29.98 "HgN/A
7:30 PM70 °FSunny.18 mph78%29.98 "Hg10 mi
7:00 PM72 °FSunny.18 mph73%29.98 "Hg10 mi
6:30 PM73 °FSunny.16 mph69%29.95 "Hg10 mi
6:00 PM75 °FSunny.18 mph61%29.95 "Hg10 mi
5:30 PM75 °FPassing clouds.20 mph61%29.95 "HgN/A
5:00 PM77 °FSunny.20 mph54%29.98 "Hg10 mi
4:30 PM77 °FSunny.18 mph51%29.98 "Hg10 mi
4:00 PM77 °FSunny.18 mph51%29.98 "Hg10 mi
3:30 PM77 °FPassing clouds.18 mph51%29.98 "HgN/A
3:00 PM79 °FPassing clouds.17 mph48%30.01 "HgN/A
2:30 PM79 °FPassing clouds.18 mph48%30.01 "HgN/A
2:00 PM77 °FPassing clouds.20 mph54%30.04 "HgN/A
1:30 PM75 °FPartly sunny.17 mph57%30.04 "HgN/A
1:00 PM75 °FOvercast.17 mph61%30.07 "HgN/A
12:30 PM75 °FPassing clouds.12 mph61%30.07 "HgN/A
12:00 PM72 °FPassing clouds.13 mph69%30.09 "HgN/A
11:30 AM72 °FBroken clouds.12 mph69%30.09 "HgN/A
11:00 AM70 °FPartly sunny.10 mph73%30.09 "HgN/A
10:30 AM68 °FPartly sunny.10 mph78%30.09 "HgN/A
10:00 AM68 °FMostly cloudy.10 mph83%30.09 "HgN/A
9:30 AM66 °FMostly cloudy.8 mph88%30.09 "HgN/A
9:00 AM66 °FPartly sunny.8 mph88%30.09 "HgN/A
8:30 AM66 °FBroken clouds.8 mph88%30.09 "HgN/A
8:00 AM66 °FMore clouds than sun.8 mph88%30.09 "HgN/A
7:30 AM66 °FMostly cloudy.9 mph88%30.09 "HgN/A
7:00 AM66 °FMostly cloudy.9 mph88%30.09 "HgN/A
Weather by CustomWeather, © 2016

See weather overviewHow to use our weather pages